Voltar ao catálogo

FENGYUN 1C DEB

LostSSO
NORAD 38507·DEBRIS·🇨🇳 China

Lançado May 10, 1999 de Taiyuan Satellite Launch Center

Loading…

Próximas Passagens (próximas 24 horas)

TLE

ObsoletoSource: Space-Track

Época: May 14, 2014, 20:15 UTC

1 38507U 99025ESS 14134.84428656  .00001786  00000-0  89061-3 0  9993
2 38507  98.9360 157.4031 0038756 208.8781 151.0249 14.17821652275445

Acompanhe FENGYUN 1C DEB em tempo real com AllMySat

Download on the App Store